Weather reports worldwide

Advertisment
Kinlochewe, United Kingdom (99092): temperature & dewpoint: 19.01.2017 01:00:00 - 25.01.2017 01:00:00 (GMT)Kinlochewe, United Kingdom (99092): temperature -20cm: 19.01.2017 01:00:00 - 25.01.2017 01:00:00 (GMT)Kinlochewe, United Kingdom (99092): precipitation: 19.01.2017 01:00:00 - 25.01.2017 01:00:00 (GMT)
Date & Time tt [°C] td [°C] tt -20cm [°C] rr [mm]
25.01.2017 01:00:00 12,5 7,9 - -
25.01.2017 00:00:00 12,2 7,5 - 0,0
24.01.2017 23:00:00 12,5 6,0 - 0,0
24.01.2017 22:00:00 11,9 5,4 - 0,0
24.01.2017 21:00:00 7,1 1,7 - 0,0
24.01.2017 20:00:00 10,5 2,5 - 0,0
24.01.2017 19:00:00 10,2 3,1 - 0,0
24.01.2017 18:00:00 10,5 3,4 - 0,0
24.01.2017 17:00:00 10,6 4,3 - 0,0
24.01.2017 16:00:00 10,7 4,4 - 0,0
24.01.2017 15:00:00 11,2 4,4 - 0,0
24.01.2017 14:00:00 11,6 4,6 - 0,0
24.01.2017 13:00:00 10,9 4,9 - 0,0
24.01.2017 12:00:00 10,7 5,2 - 0,0
24.01.2017 11:00:00 10,6 5,3 - 0,0
24.01.2017 10:00:00 10,3 5,7 - 0,0
24.01.2017 09:00:00 10,0 6,2 4,7 0,0
24.01.2017 08:00:00 9,9 6,3 - 0,0
24.01.2017 07:00:00 9,5 7,0 - 0,0
24.01.2017 06:00:00 9,5 6,4 - 0,0
24.01.2017 05:00:00 9,1 6,4 - 0,2
24.01.2017 04:00:00 8,6 6,4 - 0,0
24.01.2017 03:00:00 9,4 4,7 - 0,0
24.01.2017 02:00:00 8,5 2,0 - 0,0
24.01.2017 01:00:00 7,9 2,0 - 0,0
24.01.2017 00:00:00 8,1 1,9 - 0,0
23.01.2017 23:00:00 8,5 1,9 - 0,0
23.01.2017 22:00:00 7,8 2,2 - 0,0
23.01.2017 21:00:00 7,7 1,4 - 0,0
23.01.2017 20:00:00 6,5 1,9 - 0,0
23.01.2017 19:00:00 8,0 2,0 - 0,0
23.01.2017 18:00:00 7,8 2,1 - 0,0
23.01.2017 17:00:00 7,3 1,4 - 0,0
23.01.2017 16:00:00 6,4 1,2 - 0,0
23.01.2017 15:00:00 6,7 1,2 - 0,0
23.01.2017 14:00:00 6,5 0,1 - 0,0
23.01.2017 13:00:00 6,1 0,4 - 0,0
23.01.2017 12:00:00 4,8 0,7 - 0,0
23.01.2017 11:00:00 3,7 0,2 - 0,0
23.01.2017 10:00:00 2,8 0,0 - 0,0
23.01.2017 09:00:00 2,9 -0,1 4,5 0,0
23.01.2017 08:00:00 3,9 0,6 - 0,0
23.01.2017 07:00:00 4,0 0,6 - 0,0
23.01.2017 06:00:00 4,1 1,4 - 0,0
23.01.2017 05:00:00 4,5 2,3 - 0,0
23.01.2017 04:00:00 4,5 2,6 - 0,0
23.01.2017 03:00:00 5,5 3,1 - 0,0
23.01.2017 02:00:00 2,7 2,1 - 0,0
23.01.2017 01:00:00 2,6 1,8 - 0,0
23.01.2017 00:00:00 2,6 1,8 - 0,0
22.01.2017 23:00:00 2,3 1,7 - 0,0
22.01.2017 22:00:00 0,0 -0,7 - 0,0
22.01.2017 21:00:00 1,6 0,6 - 0,0
22.01.2017 20:00:00 3,4 1,8 - 0,0
22.01.2017 19:00:00 3,8 2,1 - 0,0
22.01.2017 18:00:00 3,9 2,4 - 0,0
22.01.2017 17:00:00 3,8 2,1 - 0,0
22.01.2017 16:00:00 4,2 1,7 - 0,0
22.01.2017 15:00:00 4,4 2,0 - 0,0
22.01.2017 14:00:00 3,9 1,8 - 0,0
22.01.2017 13:00:00 3,8 1,5 - 0,0
22.01.2017 12:00:00 3,2 1,4 - 0,0
22.01.2017 11:00:00 2,7 0,9 - 0,0
22.01.2017 10:00:00 1,9 0,3 - 0,0
22.01.2017 09:00:00 1,4 -0,1 4,7 0,0
22.01.2017 08:00:00 1,2 -0,2 - 0,0
22.01.2017 07:00:00 1,0 -0,7 - 0,0
22.01.2017 06:00:00 0,3 -0,8 - 0,0
22.01.2017 05:00:00 -0,3 -1,2 - 0,0
22.01.2017 04:00:00 -0,5 -1,6 - 0,0
22.01.2017 03:00:00 -0,9 -1,7 - 0,0
22.01.2017 02:00:00 -1,7 -2,2 - 0,0
22.01.2017 01:00:00 -2,9 -3,6 - 0,0
22.01.2017 00:00:00 -1,8 -2,8 - 0,0
21.01.2017 23:00:00 -1,6 -2,9 - 0,0
21.01.2017 22:00:00 -0,2 -1,8 - 0,0
21.01.2017 21:00:00 -0,5 -2,1 - 0,0
21.01.2017 20:00:00 -0,6 -1,8 - 0,0
21.01.2017 19:00:00 0,3 -1,2 - 0,0
21.01.2017 18:00:00 0,9 -0,5 - 0,0
21.01.2017 17:00:00 1,3 -0,1 - 0,0
21.01.2017 16:00:00 2,2 0,0 - 0,0
21.01.2017 15:00:00 5,1 1,1 - 0,0
21.01.2017 14:00:00 5,2 1,1 - 0,0
21.01.2017 13:00:00 4,5 1,0 - 0,0
21.01.2017 12:00:00 3,6 1,0 - 0,2
21.01.2017 11:00:00 2,0 0,4 - 0,0
21.01.2017 10:00:00 -0,5 -1,0 - 0,0
21.01.2017 09:00:00 -0,7 -1,7 5,5 0,0
21.01.2017 08:00:00 0,1 -0,6 - 0,0
21.01.2017 07:00:00 0,2 -0,3 - 0,0
21.01.2017 06:00:00 0,6 0,4 - 0,0
21.01.2017 05:00:00 0,5 0,2 - 0,0
21.01.2017 04:00:00 2,2 1,3 - 0,0
21.01.2017 03:00:00 2,5 1,4 - 0,0
21.01.2017 02:00:00 1,7 1,2 - 0,0
21.01.2017 01:00:00 1,2 0,9 - 0,0
21.01.2017 00:00:00 -0,1 -0,3 - 0,0
20.01.2017 23:00:00 0,1 -0,2 - 0,0
20.01.2017 22:00:00 0,1 -0,4 - 0,0
20.01.2017 21:00:00 0,2 -0,4 - 0,0
20.01.2017 20:00:00 1,2 0,2 - 0,0
20.01.2017 19:00:00 1,9 0,8 - 0,0
20.01.2017 18:00:00 3,2 1,9 - 0,0
20.01.2017 17:00:00 2,8 1,1 - 0,0
20.01.2017 16:00:00 4,7 1,9 - 0,0
20.01.2017 15:00:00 7,6 2,6 - 0,0
20.01.2017 14:00:00 8,5 3,1 - 0,0
20.01.2017 13:00:00 7,7 3,0 - 0,0
20.01.2017 12:00:00 6,7 3,0 - 0,0
20.01.2017 11:00:00 5,3 2,9 - 0,0
20.01.2017 10:00:00 2,7 1,2 - 0,0
20.01.2017 09:00:00 4,2 2,1 6,2 0,0
20.01.2017 08:00:00 4,6 2,3 - 0,0
20.01.2017 07:00:00 5,3 2,8 - 0,0
20.01.2017 06:00:00 5,7 3,2 - 0,0
20.01.2017 05:00:00 7,2 3,2 - 0,0
20.01.2017 04:00:00 7,3 3,9 - 0,0
20.01.2017 03:00:00 7,7 3,9 - 0,0
20.01.2017 02:00:00 8,0 3,9 - 0,0
20.01.2017 01:00:00 8,2 4,4 - 0,0
20.01.2017 00:00:00 8,5 4,9 - 0,0
19.01.2017 23:00:00 8,6 5,3 - 0,0
19.01.2017 22:00:00 8,9 5,2 - 0,0
19.01.2017 21:00:00 8,8 5,4 - 0,0
19.01.2017 20:00:00 8,9 5,6 - 0,0
19.01.2017 19:00:00 9,0 5,8 - 0,0
19.01.2017 18:00:00 9,1 5,8 - 0,0
19.01.2017 17:00:00 9,3 5,8 - 0,0
19.01.2017 16:00:00 9,0 6,1 - 0,0
19.01.2017 15:00:00 9,2 6,2 - 0,0
19.01.2017 14:00:00 9,4 6,0 - 0,0
19.01.2017 13:00:00 9,4 5,9 - 0,0
19.01.2017 12:00:00 9,3 6,2 - 0,0
19.01.2017 11:00:00 9,6 5,6 - 0,0
19.01.2017 10:00:00 9,4 5,6 - -
19.01.2017 09:00:00 9,3 5,3 6,2 0,0
19.01.2017 08:00:00 9,3 5,4 - 0,0
19.01.2017 07:00:00 9,2 5,7 - 0,0
19.01.2017 06:00:00 9,4 5,9 - 0,0
19.01.2017 05:00:00 9,4 6,2 - 0,0
19.01.2017 04:00:00 9,3 6,2 - 0,0
19.01.2017 03:00:00 9,5 6,5 - 0,2
19.01.2017 02:00:00 9,6 6,5 - 0,0
19.01.2017 01:00:00 9,6 6,7 - 0,0

tt = temperature
td = dewpoint
tt -20cm = temperature -20cm
rr = precipitation

Next stations